DateTimeUTC,F1_A11,F1_S11,BsB_S11,BsG_S11,BsR_S11,BbsB_S11,BbsG_S11,BbsR_S11,BaB_A11,BaG_A11,BaR_A11,Tu_S11,T_S11,Uu_S11,U_S11,P_S11,T1_A11
2021-05-31T03:00:00Z,00000200,21000000,,,,,,,0000.02,-000.09,0000.01,17.2,24.4,00.9,00.6,0658.3,31.0
2021-05-31T03:01:00Z,00000200,21000000,,,,,,,0000.03,0000.08,-000.00,17.1,24.4,00.9,00.6,0658.3,31.0
2021-05-31T03:02:00Z,00000200,21000000,,,,,,,-000.19,-000.19,-000.13,17.1,24.4,00.9,00.6,0658.3,31.0
2021-05-31T03:03:00Z,00000200,61000000,,,,,,,0000.73,0000.46,0000.48,17.1,24.4,00.9,00.6,0658.3,31.0
2021-05-31T03:04:00Z,00000200,41000000,0001.93,0000.48,0000.75,0000.19,0000.03,0000.14,0000.11,0000.11,0000.39,17.3,24.2,01.2,00.8,0659.1,31.0
2021-05-31T03:05:00Z,00000200,01000000,0000.70,0000.68,0000.41,0000.44,0000.12,0000.16,0000.12,0000.17,-000.05,17.3,24.1,01.3,00.8,0659.2,31.0
2021-05-31T03:06:00Z,00000200,01000000,0000.77,0000.70,0000.33,-000.10,0000.03,0000.07,0000.14,0000.20,0000.28,17.3,24.1,01.3,00.9,0659.2,31.0
2021-05-31T03:07:00Z,00000200,01000000,0001.35,0000.51,0000.38,0000.16,0000.04,0000.28,-000.06,0000.02,-000.28,17.3,24.1,01.3,00.8,0659.2,31.0
2021-05-31T03:08:00Z,00000200,01000000,0000.65,0000.29,0000.50,0000.66,0000.07,0000.20,0000.19,-000.01,0000.01,17.3,24.1,01.3,00.9,0659.1,31.0
2021-05-31T03:09:00Z,00000200,01000000,0000.77,0000.44,0000.39,-000.15,0000.15,0000.24,0000.07,0000.40,0000.20,17.3,24.0,01.2,00.8,0659.1,30.9
2021-05-31T03:10:00Z,00000200,01000000,0000.96,0000.45,0000.48,-000.13,-000.14,0000.47,-000.35,-000.17,-000.35,17.3,24.0,01.3,00.9,0659.1,31.0
2021-05-31T03:11:00Z,00000200,01000000,0000.92,0000.64,0000.42,0000.55,-000.22,0000.05,0000.50,0000.09,0000.46,17.3,24.0,01.3,00.8,0659.1,31.0
2021-05-31T03:12:00Z,00000200,01000000,0000.56,0000.33,0000.46,0000.36,0000.09,0000.42,0000.04,-000.08,-000.22,17.3,24.0,01.3,00.9,0659.1,31.0
2021-05-31T03:13:00Z,00000200,01000000,0000.70,0000.35,0000.49,0000.08,0000.13,0000.24,0000.07,0000.33,0000.10,17.3,24.0,01.3,00.8,0659.1,31.0
2021-05-31T03:14:00Z,00000200,01000000,0000.89,0000.25,0000.06,0000.01,0000.13,0000.17,0000.06,-000.10,0000.29,17.3,24.0,01.2,00.8,0659.1,31.0
2021-05-31T03:15:00Z,00000200,01000000,0000.56,0000.35,0000.12,0000.53,0000.06,-000.06,-000.13,-000.05,-000.08,17.3,24.0,01.1,00.7,0659.1,31.0
2021-05-31T03:16:00Z,00000200,01000000,0000.99,0000.07,0000.44,0000.06,0000.08,0000.14,0000.02,0000.21,-000.04,17.3,24.0,01.1,00.7,0659.1,30.9
2021-05-31T03:17:00Z,00000200,01000000,-000.06,0000.50,0000.30,0000.69,-000.01,0000.16,0000.22,-000.20,0000.22,17.3,24.0,01.1,00.7,0659.1,30.9
2021-05-31T03:18:00Z,00000200,01000000,0000.88,0000.33,0000.31,0000.21,-000.01,0000.03,0000.02,0000.38,0000.01,17.3,24.0,01.0,00.7,0659.1,31.0
2021-05-31T03:19:00Z,00000200,01000000,0000.77,0000.54,0000.45,0000.30,0000.04,0000.30,-000.02,-000.24,-000.11,17.3,23.9,01.1,00.7,0659.1,31.0
2021-05-31T03:20:00Z,00000200,01000000,0001.14,0000.56,0000.58,0000.17,0000.10,0000.27,0000.20,0000.35,0000.23,17.3,24.0,01.1,00.7,0659.1,31.0
2021-05-31T03:21:00Z,00000200,01000000,0000.82,0000.42,0000.34,0000.25,0000.21,0000.23,0000.23,0000.18,-000.26,17.4,24.0,01.0,00.7,0659.1,31.0
2021-05-31T03:22:00Z,00000200,01000000,0000.84,0000.37,0000.29,-000.01,-000.05,0000.09,-000.19,-000.16,0000.14,17.4,24.0,01.0,00.7,0659.1,31.0
2021-05-31T03:23:00Z,00000200,01000000,0000.93,0000.59,0000.42,0000.06,0000.22,0000.11,0000.32,0000.22,0000.26,17.5,24.1,01.0,00.7,0659.1,31.0
2021-05-31T03:24:00Z,00000200,01000000,0000.64,0000.51,0000.50,-000.04,-000.02,0000.17,0000.16,0000.26,-000.02,17.5,24.1,01.0,00.7,0659.1,31.0
2021-05-31T03:25:00Z,00000200,01000000,0000.51,0000.36,0000.55,0000.61,-000.06,0000.02,0000.03,-000.04,-000.04,17.5,24.1,01.0,00.7,0659.1,31.0
2021-05-31T03:26:00Z,00000200,01000000,0000.70,0000.31,0000.28,0000.66,0000.01,0000.26,-000.05,-000.19,0000.12,17.5,24.1,00.9,00.6,0659.1,31.0
2021-05-31T03:27:00Z,00000200,01000000,0000.58,0000.43,0000.54,0000.03,-000.14,0000.29,-000.08,0000.27,-000.06,17.5,24.1,00.9,00.6,0659.1,31.0
2021-05-31T03:28:00Z,00000200,01000000,0000.47,0000.32,0000.36,0000.22,0000.07,-000.16,0000.04,-000.28,0000.02,17.5,24.1,00.8,00.5,0659.1,31.0
2021-05-31T03:29:00Z,00000200,01000000,0000.07,0000.47,0000.76,0000.34,0000.06,0000.30,-000.17,0000.15,0000.19,17.5,24.0,00.7,00.4,0659.1,31.0
2021-05-31T03:30:00Z,00000200,01000000,0000.37,0000.18,0000.39,-000.09,0000.18,-000.05,0000.03,-000.30,-000.40,17.5,24.0,00.7,00.4,0659.1,31.0
2021-05-31T03:31:00Z,00000200,01000000,0000.88,0000.48,0000.26,0000.50,0000.09,-000.08,-000.04,0000.04,0000.57,17.4,24.0,00.6,00.4,0659.1,31.0
2021-05-31T03:32:00Z,00000200,01000000,0000.74,0000.26,0000.21,0000.25,0000.17,0000.19,0000.25,0000.20,-000.45,17.4,24.0,00.6,00.4,0659.1,31.0
2021-05-31T03:33:00Z,00000200,01000000,0001.02,0000.37,0000.55,0000.27,0000.41,0000.28,-000.18,0000.14,0000.01,17.4,24.0,00.6,00.4,0659.2,31.0
2021-05-31T03:34:00Z,00000200,01000000,0001.16,0000.22,0000.60,-000.14,0000.03,0000.31,0000.26,-000.08,0000.42,17.4,24.0,00.6,00.4,0659.2,31.0
2021-05-31T03:35:00Z,00000200,01000000,0000.48,0000.43,0000.65,0000.29,-000.19,0000.21,-000.14,0000.11,0000.09,17.4,24.0,00.7,00.5,0659.1,31.0
2021-05-31T03:36:00Z,00000200,01000000,0001.09,-000.02,0000.50,0000.29,-000.09,-000.04,0000.58,0000.42,0000.46,17.4,24.0,00.7,00.5,0659.1,31.0
2021-05-31T03:37:00Z,00000200,01000000,0000.43,0000.39,0000.51,-000.01,0000.02,0000.20,0000.51,0000.02,-000.43,17.4,24.0,00.7,00.5,0659.1,31.0
2021-05-31T03:38:00Z,00000200,01000000,0000.34,0000.48,0000.27,0000.33,0000.13,-000.01,-000.14,0000.38,0000.32,17.3,24.0,00.8,00.5,0659.1,31.0
2021-05-31T03:39:00Z,00000200,01000000,0000.85,0000.33,0000.57,0000.58,0000.35,0000.22,-000.20,-000.08,-000.06,17.3,24.0,00.8,00.6,0659.1,31.0
2021-05-31T03:40:00Z,00000200,01000000,0000.88,0000.20,0000.54,0000.21,0000.12,-000.01,0000.66,0000.19,0000.08,17.3,24.0,01.0,00.7,0659.1,31.0
2021-05-31T03:41:00Z,00000200,01000000,0000.67,0000.58,0000.43,-000.06,0000.09,0000.20,0000.13,-000.01,0000.25,17.3,24.0,01.0,00.7,0659.1,31.0
2021-05-31T03:42:00Z,00000200,01000000,0001.28,0000.08,0000.46,0000.60,0000.31,0000.40,-000.12,0000.08,0000.03,17.3,24.0,01.0,00.7,0659.1,31.0
2021-05-31T03:43:00Z,00000200,01000000,0001.11,0000.55,0000.72,0000.39,0000.20,0000.19,0000.04,-000.29,0000.10,17.3,23.9,00.8,00.5,0659.1,30.9
2021-05-31T03:44:00Z,00000200,01000000,0001.10,0000.68,0000.27,0000.57,-000.06,-000.12,-000.12,-000.03,-000.17,17.3,23.9,00.8,00.5,0659.1,31.0
2021-05-31T03:45:00Z,00000200,01000000,0001.72,0000.49,0000.34,0000.36,-000.00,0000.12,0000.02,-000.04,-000.03,17.3,24.0,00.7,00.5,0659.1,31.0
2021-05-31T03:46:00Z,00000200,01000000,0000.87,0000.38,0000.35,0000.55,-000.04,0000.17,-000.34,-000.15,-000.27,17.3,23.9,00.5,00.4,0659.1,31.0
2021-05-31T03:47:00Z,00000200,01000000,0000.85,0000.50,0000.55,0000.48,0000.16,0000.14,0000.31,0000.10,0000.22,17.3,23.9,00.5,00.3,0659.1,31.0
2021-05-31T03:48:00Z,00000200,01000000,0000.07,0000.33,0000.32,0000.33,0000.28,-000.13,-000.13,0000.24,0000.12,17.3,23.9,00.4,00.3,0659.1,31.0
2021-05-31T03:49:00Z,00000200,01000000,0000.72,0000.93,0000.41,0000.23,0000.25,0000.12,0000.39,0000.30,0000.13,17.3,23.9,00.4,00.2,0659.1,31.0
2021-05-31T03:50:00Z,00000200,01000000,0000.65,0000.16,0000.20,-000.11,-000.16,0000.09,-000.13,0000.01,-000.06,17.3,23.9,00.3,00.2,0659.1,31.0
2021-05-31T03:51:00Z,00000200,01000000,0000.49,0000.37,0000.32,0000.25,-000.19,0000.21,-000.13,-000.30,-000.10,17.4,23.9,00.3,00.2,0659.1,31.0
2021-05-31T03:52:00Z,00000200,01000000,0000.88,0000.24,0000.30,-000.08,0000.04,0000.13,0000.03,-000.06,-000.15,17.4,24.0,00.2,00.2,0659.1,31.0
2021-05-31T03:53:00Z,00000200,01000000,0000.80,0000.43,0000.36,0000.64,0000.07,0000.23,0000.09,0000.08,0000.47,17.4,24.0,00.2,00.2,0659.1,31.0
2021-05-31T03:54:00Z,00000200,01000000,0001.22,0000.35,0000.34,0000.40,-000.05,0000.25,-000.11,0000.18,0000.18,17.5,24.0,00.2,00.1,0659.1,31.0
2021-05-31T03:55:00Z,00000200,01000000,0000.11,0000.18,0000.26,0000.09,0000.11,0000.11,0000.26,-000.15,-000.36,17.5,24.0,00.2,00.1,0659.1,31.0
2021-05-31T03:56:00Z,00000200,01000000,0000.86,0000.17,0000.34,-000.14,0000.01,0000.31,0000.02,0000.17,-000.20,17.5,24.0,00.2,00.1,0659.0,31.0
2021-05-31T03:57:00Z,00000200,41000000,,,,,,,0000.47,0000.61,0000.78,17.5,24.0,,00.0,0659.0,31.0
2021-05-31T03:58:00Z,00000200,61000000,,,,,,,-000.08,-000.29,-000.29,17.1,24.2,00.3,00.2,0658.1,31.0
2021-05-31T03:59:00Z,00000200,21000000,,,,,,,-000.56,-000.20,-000.19,17.1,24.3,00.0,00.0,0658.1,31.0
